{"data":{"norad_id":60071,"epoch":"2026-09-20T10:08:08.303712Z","epoch_age_seconds":183999,"freshness":"STALE","line1":"1 60071U 24113N   26263.42231833 -.00000461  00000+0  10507-5 0  9999","line2":"2 60071  53.1586 311.4705 0000898  63.5720 296.5390 15.69699408130143","mean_motion":15.69699408,"eccentricity":8.98e-5,"inclination_deg":53.1586,"raan_deg":311.4705,"arg_perigee_deg":63.572,"mean_anomaly_deg":296.539,"bstar":1.0507e-6,"rev_number":13014,"period_min":91.73730923647,"perigee_km":359.15199795315,"apogee_km":360.36212372648,"semimajor_km":6737.8940608398,"source":"CELESTRAK","updated_at":"2026-09-22T09:00:49.148795Z"}}